Location: Mannheim
(49.4880°N, 8.4650°E)
Time: 18:45:51
(UTC+02:00)

ISS - Pass Details

Date: 28 May 2022
Orbit: 415 x 420 km, 51.6° (Epoch: 26 June)

Event Time Altitude Azimuth Distance (km) Brightness Sun altitude
Rises 22:25:06 0° 288° (WNW) 2,368 1.2 -8.7°
Reaches altitude 10° 22:27:18 10° 280° (W) 1,500 -0.1 -8.9°
Maximum altitude 22:30:25 36° 212° (SSW) 674 -2.9 -9.2°
Enters shadow 22:32:57 14° 148° (SSE) 1,275 -2.0 -9.5°
